www.pogodaiklimat.ru

Погода и климат >> Архив погоды >> Россия >> Тамбовская область >> Кирсанов


ПОГОДА в Кирсанове

  • Прогноз погоды в Кирсанове
  • Монитор погоды в Кирсанове

АРХИВ ПОГОДЫ в Кирсанове

Время (UTC), дата Ветер
(напр.,м/с)
 
Видим.   Явления Облачность Т
(С)
Тd
(С)
f
(%)
Тe
(С)
Тes
(С)
Комфортность P
(гПа)
Po
(гПа)
Тmin
(С)
Tmax
(С)
R
(мм)
R24
(мм)
S
(см)
03 16.09 Ю 1 10 км 10/6 600 м
[Cb calv Ac As]
+11.0 +1.9 53 +11 +11 1008.8 988.6 +7.8
06 16.09 ЮЗ 3 10 км 10/0
[Ac As]
+12.9 +2.1 48 +12 +13 1006.5 986.5
09 16.09 ЮЗ 5 10 км 10/0
[Ac As]
+15.9 +1.9 39 +15 +16 1004.0 984.2
12 16.09 ЮЗ 5 10 км 10/6 600 м
[Cb calv Ac As]
+16.2 +3.0 41 +15 +16 1002.8 983.1
15 16.09 ЮЗ 3 10 км 6/0
[Ac trans]
+16.8 +3.4 41 +17 +17 1002.2 982.5 +17.5
18 16.09 ЮЗ 2 10 км 8/0
[Ac trans]
+13.9 +5.1 55 +14 +14 1003.0 983.1
21 16.09 ЮЗ 2 10 км 6/0
[Ac trans]
+12.2 +4.8 61 +11 +11 1003.5 983.6
00 17.09 ЮЗ 2 10 км ясно +10.4 +4.6 67 +9 +9 1002.9 982.8
03 17.09 ЮЗ 2 10 км 3/0
[Ci sp]
+8.1 +4.1 76 +6 +6 1002.6 982.3 +8.0
06 17.09 ЮЗ 3 10 км 8/0
[Ac trans Ci sp]
+13.5 +4.6 55 +13 +14 1002.2 982.3 +7.3
09 17.09 ЮЗ 4 10 км 8/8 600 м
[Cb calv]
+17.0 +2.5 38 +17 +18 1000.8 981.1
12 17.09 ЮЗ 4 10 км 6/6 600 м
[Cb calv]
+18.9 0.0 28 +19 +20 999.9 980.5
15 17.09 З 2 10 км 6/0
[Ac trans Ci sp]
+16.4 +0.4 34 +17 +17 1000.0 980.3 +19.3
18 17.09 ЮЗ 2 10 км ясно +12.5 +0.6 44 +12 +12 1001.7 981.8
21 17.09 З 2 10 км ясно +9.6 +0.9 55 +8 +8 1002.1 981.9
00 18.09 Ю 1 10 км 6/0
[Ci sp]
+6.7 +1.2 68 +6 +6 1002.9 982.5
03 18.09 Ю 2 10 км 6/0
[Ac As]
+4.4 +0.8 77 +2 +2 1002.9 982.2 +4.0
06 18.09 Ю 2 10 км 4/0
[Ci sp]
+10.2 +2.3 58 +9 +13 1020.8 982.0
09 18.09 ЮЗ 1 10 км 10/0
[Ac As]
+15.0 +0.4 37 +16 +19 1001.2 981.4
12 18.09 Ю 1 10 км 10/10 600 м
[Sc]
+12.1 +5.6 64 +12 +12 999.5 979.7
15 18.09 Ю 1 10 км {дождь} 10/10 600 м
[Sc]
+9.7 +7.6 87 +9 +9 997.4 977.3 +15.2 1
18 18.09 ЮЗ 3 4000 м слаб. дождь 10/10 300 м
[Frnb Ns]
+8.0 +6.1 88 +5 +5 995.5 975.4
21 18.09 ЮЗ 3 10 км {дождь} 10/10 600 м
[Sc]
+7.4 +5.6 88 +4 +4 995.1 974.9
00 19.09 З 4 4000 м слаб. дождь 10/10 300 м
[Frnb Ns]
+5.9 +4.0 88 +2 +2 995.7 975.4
03 19.09 З 3 10 км {дождь} 10/10 600 м
[Sc]
+7.7 +6.2 90 +5 +5 1000.7 980.4 +5.8 7
06 19.09 З 2 10 км {дождь} 10/6 600 м
[Cb calv Ac und]
+8.5 +6.1 85 +7 +7 1004.7 984.5
09 19.09 З 4 10 км 10/10 600 м
[Cb calv]
+11.3 +5.1 66 +9 +9 1007.7 987.5
12 19.09 ЮЗ 4 10 км 8/8 600 м
[Cb calv]
+12.6 +3.8 55 +11 +12 1009.4 989.4
15 19.09 З 2 10 км {ливн. осадки} 8/6 600 м
[Cb calv Ac trans]
+9.4 +6.1 80 +8 +8 1011.2 990.9 +12.9 2
18 19.09 ЮЗ 2 10 км {ливн. осадки} 8/6 600 м
[Cb calv Ac trans]
+8.2 +5.1 81 +6 +6 1012.5 992.1
21 19.09 ЮЗ 1 10 км 6/0
[Ac trans]
+7.0 +4.6 85 +6 +6 1013.1 992.5
00 20.09 Ю 1 10 км 6/0
[Ac trans]
+6.2 +4.1 86 +5 +5 1013.2 992.5
03 20.09 Ю 1 10 км 9/9 1000 м
[Sc]
+5.5 +4.1 91 +4 +4 1013.2 992.5 +5.2
06 20.09 ЮЗ 2 10 км 8/0
[Ac trans]
+8.0 +4.6 79 +6 +8 1013.0 992.5 +5.0
09 20.09 ЮЗ 4 10 км 8/6 600 м
[Cb calv Ac trans]
+12.8 +4.8 58 +11 +13 1012.4 992.2
12 20.09 ЮЗ 3 10 км 8/6 600 м
[Cb calv Ac trans]
+12.7 +3.8 55 +12 +13 1011.8 991.6
15 20.09 ЮЗ 2 10 км 8/6 600 м
[Cb calv Ac trans]
+10.8 +3.2 59 +10 +10 1011.6 991.3 +13.5
18 20.09 Ю 1 10 км 4/0
[Ac trans]
+6.9 +4.6 85 +6 +6 1012.5 991.9
21 20.09 ЮЗ 1 10 км 4/0
[Ac trans]
+4.4 +3.2 92 +3 +3 1012.2 991.5
00 21.09 ЮЗ 1 10 км 8/0
[Ac trans]
+3.9 +2.9 93 +2 +2 1012.1 991.2
03 21.09 штиль 0 4000 м дымка 9/0
[Ac trans]
+3.2 +2.2 93 +2 +2 1011.7 990.9 +3.1
06 21.09 СЗ 2 10 км 10/10 300 м
[St]
+6.4 +5.0 91 +4 +4 1012.0 991.4
09 21.09 С 3 4000 м слаб. ливневой дождь 10/10 600 м
[Cb cap]
+7.5 +3.8 77 +5 +5 1011.5 991.0
12 21.09 З 3 10 км {ливн. осадки} 8/8 600 м
[Cb cap]
+10.2 +1.7 56 +8 +9 1010.8 990.5
15 21.09 З 1 10 км 6/4 600 м
[Cb calv Ac trans]
+6.7 +3.4 79 +6 +6 1011.2 990.7 +11.0 2
18 21.09 штиль 0 10 км 3/0 600 м
[Ac trans]
+3.5 +1.7 88 +2 +2 1011.7 990.9
21 21.09 ЮЗ 2 10 км ясно +2.5 +0.9 89 -1 -1 1010.5 989.7
00 22.09 ЮЗ 2 10 км 8/0
[Ac trans]
+1.9 +0.3 89 -1 -1 1008.7 987.8
03 22.09 Ю 2 10 км 10/0
[Ac As]
+1.3 +0.3 93 -2 -2 1006.5 985.7 +0.8
06 22.09 Ю 2 4000 м слаб. дождь 10/0
[As op]
+3.3 +2.3 93 0 +1 1003.1 982.4
09 22.09 Ю 2 4000 м слаб. дождь 10/10 300 м
[Frnb Ns]
+4.9 +4.0 94 +2 +2 999.1 978.7
12 22.09 З 3 10 км {дождь} 10/10 600 м
[Sc]
+8.0 +6.2 88 +5 +5 996.7 976.6
15 22.09 З 7
{15}
10 км 10/6 600 м
[Cb calv As op]
+7.0 +1.9 70 +2 +2 997.6 977.3 +9.3 4
18 22.09 З 3-12
{15}
10 км ясно +4.5 -0.3 71 +1 +1 999.7 979.3
21 22.09 З 4 10 км ясно +3.3 -0.5 76 -1 -1 1000.6 980.0

 

Местоположение метеостанции Кирсанов (Тамбовская область, Россия): широта 52.67 долгота 42.72 высота над уровнем моря 169 м.

В архиве по умолчанию представлена погода в Кирсанове за последнюю неделю. Архивные данные за месяц целиком и за предыдущие месяцы, начиная с января 2011 года, Вы можете получить, выбрав интересующий диапазон дат из раскрывающегося списка и нажав кнопку "Ввод!".


*Определитесь, кто Вы:
робот инопланетянин человек

Внимание! Время в таблицах - всемирное. Для получения местного времени необходимо прибавить поправку, которая равна 3 ч.

Смотрите также архив погоды в соседних городах и на ближайших метеорологических станциях:

Погода в Белинском (Пензенская область, Россия) (57 км)
Погода в Обловке (Тамбовская область, Россия) (84 км)
Погода в Пачелме (Пензенская область, Россия) (84 км)
Погода в Ртищево (Саратовская область, Россия) (86 км)
Погода в Земетчино (Пензенская область, Россия) (90 км)
Погода в Тамбове (Тамбовская область, Россия) (95 км)
Погода в Каменке (Пензенская область, Россия) (105 км)
Погода в Моршанске (Тамбовская область, Россия) (106 км)
Погода в Росташах (Саратовская область, Россия) (107 км)
Погода в Жердевке (Тамбовская область, Россия) (126 км)

Пояснения к столбцам:

Ветер - указаны скорость ветра в м/с - средняя за 10 мин, порывы в срок и между сроками (в фигурных скобках) и направление, откуда дует ветер: С - северный, СВ - северо-восточный, В - восточный, ЮВ - юго-восточный, Ю - южный, ЮЗ - юго-западный, З - западный, СЗ - северо-западный.
Видимость - горизонтальная дальность видимости в метрах или километрах. При видимости от 1 до 10 км при отсутствии осадков обычно наблюдается дымка, при ухудшении видимости до 1 км и менее - туман. В сухую погоду видимость может ухудшаться дымом, пылью или мглою.
Явления - указаны атмосферные явления, наблюдавшиеся в срок или в последний час перед сроком; фигурными скобками обозначены явления, наблюдавшиеся между сроками (за 1-3 часа до срока); квадратными скобками обозначены град или гололедные отложения с указанием их диаметра в мм.
Облачность - указаны через наклонную черту общая и нижняя облачность в баллах и высота нижней границы облаков в метрах; квадратными скобками обозначены формы облаков: Ci - перистые, Cs - перисто-слоистые, Cc - перисто-кучевые, Ac - высококучевые, As - высокослоистые, Sc - слоисто-кучевые, Ns - слоисто-дождевые, Cu - кучевые, Cb - кучево-дождевые. Подробнее классификацию облаков см. в Атласе облаков (PDF).
T - Температура воздуха - температура, измеренная на высоте 2 м над землей.
Td - Температура точки росы - температура, при понижении до которой содержащийся в воздухе водяной пар достигнет насыщения.
f - Относительная влажность воздуха - влажноcть воздуха, измеренная на высоте 2 м над землей.
Te - Эффективная температура - температура, которую ощущает одетый по сезону человек в тени. Характеристика душности погоды. При расчете учитывается влияние влажности воздуха и скорости ветра на теплоощущения человека.
Tes - Эффективная температура на солнце - температура, которую ощущает человек, с поправкой на солнечный нагрев. Характеристика знойности погоды. Зависит от высоты солнца над горизонтом, облачности и скорости ветра. Ночью, в пасмурную погоду, а также при ветре 12 м/с и более поправка равна нулю.
P - Атмосферное давление - приведенное к уровню моря атмосферное давление.
Po - Атмосферное давление - измеренное на уровне метеостанции атмосферное давление.
Tmin - Минимальная температура - минимум температуры воздуха на высоте 2 м над землей.
Tmax - Максимальная температура - максимум температуры воздуха на высоте 2 м над землей.
R - Количество осадков - Количество выпавших осадков за период времени, мм. При наведении курсора мыши на число - период времени, за который выпало указанное количество осадков.
R24 - Количество осадков - Количество выпавших осадков за 24 часа, мм.
S - Снежный покров - Высота снежного покрова, см. При наведении курсора мыши на число - состояние снежного покрова и степень покрытия местности в баллах.